[[{"header":{"parameterUnit":"m.s-1","parameterCategory":1,"la1":30.2991,"la2":30.254,"lo1":-89.0895,"lo2":-89.0444,"dy":0.0017,"dx":0.0017,"nx":28,"ny":28,"refTime":"2025-12-25T09:00:00:Z","depth":0,"parameterNumber":2,"parameterNumberName":"U-component_of_WINDS"},"data":[0,0,0,0,0,0,0,0,0,0,0,0,0,0,0,0,0,0,0,0,0,0,0,0,0,0,0,0,0,0,0,0,0,0,0,0,0,0,0,0,0,0,0,0,0,0,0,0,0,0,0,0,0,0,0,0,0,0,-0.5066,-0.5066,0,-0.5051,-0.505,-0.505,-0.5033,-0.5032,-0.5032,-0.5032,-0.5015,-0.5015,-0.5015,0,0,0,0,0,0,0,0,0,0,0,0,0,-0.508,-0.508,-0.5066,-0.5066,-0.5066,-0.5051,-0.505,-0.505,-0.5033,-0.5032,-0.5032,-0.5032,-0.5015,-0.5015,-0.5015,0,0,0,0,0,0,0,0,0,0,0,0,0,-0.507,-0.508,-0.5066,-0.5055,-0.5054,-0.5051,-0.505,-0.505,-0.5033,-0.5032,-0.5032,-0.5031,-0.5015,-0.5015,-0.5015,-0.5021,0,0,-0.5014,-0.5014,0,0,0,0,0,0,0,0,-0.5071,-0.507,-0.5057,-0.5056,-0.5055,-0.5043,-0.5049,-0.504,-0.5033,-0.5041,-0.5032,-0.5031,-0.5025,-0.5024,-0.5021,-0.502,-0.5019,-0.5014,-0.5013,-0.5013,-0.5013,0,0,0,0,0,0,0,-0.5072,-0.507,-0.506,-0.5057,-0.5055,-0.5051,-0.5049,-0.5047,-0.5035,-0.504,-0.5039,-0.5037,-0.5024,-0.5022,-0.5021,-0.5019,-0.5014,-0.5013,-0.5013,-0.5013,-0.5021,-0.5021,0,0,0,0,0,0,-0.5074,-0.5071,-0.5061,-0.506,-0.5062,-0.5051,-0.5049,-0.5047,-0.5035,-0.5033,-0.5038,-0.5036,-0.5023,-0.5021,-0.502,-0.5026,-0.5013,-0.5013,-0.5013,-0.5021,-0.5021,-0.5022,0,0,0,0,0,0,-0.5074,-0.5073,-0.5061,-0.5065,-0.5063,-0.5051,-0.5049,-0.5047,-0.5045,-0.5033,-0.5031,-0.5038,-0.5022,-0.5021,-0.5021,-0.5026,-0.5013,-0.5013,-0.502,-0.5021,-0.5021,-0.5039,0,0,0,0,0,0,-0.5075,-0.5073,-0.5076,-0.5065,-0.5063,-0.5062,-0.505,-0.5047,-0.5045,-0.5043,-0.5033,-0.5031,-0.5022,-0.5021,-0.502,-0.5025,-0.5012,-0.502,-0.502,-0.5021,-0.5038,-0.504,-0.5042,0,0,0,0,0,-0.5075,-0.5081,-0.5076,-0.5075,-0.5066,-0.5062,-0.5061,-0.5051,-0.5045,-0.5047,-0.504,-0.5031,-0.5025,-0.5021,-0.502,-0.5025,-0.5019,-0.502,-0.5021,-0.5037,-0.504,-0.5042,0,0,0,0,0,0,-0.5093,-0.508,-0.5074,-0.5076,-0.5071,-0.506,-0.5062,-0.5054,-0.505,-0.5049,-0.5036,-0.5034,-0.5035,-0.503,-0.5026,-0.503,-0.5021,-0.5022,-0.5033,-0.5036,-0.5038,-0.5039,-0.5012,0,0,0,0,0,-0.5097,-0.5096,-0.5084,-0.5088,-0.5085,-0.5074,-0.5072,-0.5065,-0.5058,-0.5056,-0.5048,-0.5042,-0.5039,-0.5037,-0.5033,-0.5037,-0.5034,-0.5039,-0.5041,-0.5043,-0.5044,-0.5045,-0.5047,-0.5024,-0.5024,-0.5024,0,0,-0.5105,-0.5098,-0.5098,-0.5091,-0.5086,-0.5084,-0.5072,-0.5071,-0.507,-0.5056,-0.5055,-0.5049,-0.5042,-0.5043,-0.5044,-0.5039,-0.505,-0.5044,-0.5046,-0.5046,-0.5046,-0.5048,-0.505,-0.5025,-0.5025,-0.5025,0,0,-0.512,-0.5115,-0.5117,-0.5112,-0.5104,-0.5097,-0.5097,-0.5087,-0.5083,-0.5082,-0.5071,-0.507,-0.5064,-0.5059,-0.5056,-0.5069,-0.506,-0.5068,-0.5078,-0.508,-0.5082,-0.5083,-0.5088,-0.5089,-0.5069,-0.5069,-0.5069,0,-0.5132,-0.5129,-0.5119,-0.5119,-0.5116,-0.5103,-0.5105,-0.51,-0.5092,-0.509,-0.5085,-0.5078,-0.5072,-0.5072,-0.5075,-0.5073,-0.5073,-0.5069,-0.5082,-0.5084,-0.5085,-0.5089,-0.5091,-0.507,-0.5069,-0.5069,-0.5069,0,-0.5144,-0.5143,-0.5145,-0.5138,-0.5135,-0.5136,-0.5125,-0.5124,-0.5117,-0.511,-0.5109,-0.5101,-0.5096,-0.5095,-0.5088,-0.5094,-0.5092,-0.5085,-0.5075,-0.5088,-0.5092,-0.5093,-0.5071,-0.5071,-0.507,-0.507,0,0,-0.5169,-0.5156,-0.5157,-0.5153,-0.5143,-0.5142,-0.5142,-0.5137,-0.5136,-0.5131,-0.513,-0.5126,-0.5119,-0.5116,-0.5108,-0.5109,-0.512,-0.5102,-0.5101,-0.5105,-0.5126,-0.5131,-0.5133,-0.5114,-0.5114,-0.5115,-0.5126,0,-0.5182,-0.5182,-0.5173,-0.5175,-0.5174,-0.5161,-0.5161,-0.5155,-0.5149,-0.5146,-0.5139,-0.5136,-0.5128,-0.5125,-0.5126,-0.5118,-0.5124,-0.5117,-0.5113,-0.5113,-0.5116,-0.5135,-0.5141,-0.5152,-0.5128,-0.5128,-0.5128,0,-0.5198,-0.5193,-0.5196,-0.5186,-0.5185,-0.5185,-0.518,-0.5178,-0.517,-0.5166,-0.5161,-0.5153,-0.5152,-0.5143,-0.5142,-0.5138,-0.5136,-0.5132,-0.5132,-0.5131,-0.5122,-0.5135,-0.5156,-0.5158,-0.513,-0.513,-0.513,0,-0.5216,-0.521,-0.5211,-0.5208,-0.5197,-0.5197,-0.5193,-0.5185,-0.5183,-0.5178,-0.5176,-0.5171,-0.5168,-0.5164,-0.5154,-0.5149,-0.5154,-0.5144,-0.5149,-0.515,-0.5151,-0.5151,-0.5172,-0.515,-0.515,-0.515,-0.515,0,-0.5231,-0.5233,-0.5219,-0.522,-0.5221,-0.521,-0.5212,-0.5206,-0.5199,-0.5198,-0.5187,-0.5186,-0.5173,-0.517,-0.5163,-0.5162,-0.5161,-0.5157,-0.5155,-0.5158,-0.5159,-0.5157,-0.5155,-0.515,-0.515,-0.515,-0.515,0,-0.5252,-0.5243,-0.5242,-0.5232,-0.5229,-0.5231,-0.5222,-0.5221,-0.5214,-0.5213,-0.5212,-0.5201,-0.5197,-0.5187,-0.518,-0.5175,-0.5177,-0.5173,-0.518,-0.5178,-0.5184,-0.5184,-0.5204,-0.5206,-0.5183,-0.5183,-0.5183,0,-0.5263,-0.5264,-0.5253,-0.5252,-0.5248,-0.5245,-0.5243,-0.5232,-0.5229,-0.5221,-0.5222,-0.5218,-0.5214,-0.5208,-0.5199,-0.5195,-0.519,-0.5198,-0.5189,-0.5193,-0.519,-0.519,-0.519,-0.52,-0.52,-0.52,-0.52,0,-0.5282,-0.5278,-0.5274,-0.527,-0.5267,-0.5263,-0.5258,-0.5257,-0.5244,-0.5242,-0.5239,-0.5236,-0.5229,-0.5225,-0.5219,-0.5213,-0.5205,-0.5203,-0.5204,-0.5207,-0.5211,-0.5209,-0.5185,-0.5203,-0.5203,-0.5202,-0.5202,-0.5202,-0.5298,-0.5299,-0.5291,-0.5288,-0.5283,-0.5279,-0.5278,-0.5271,-0.5268,-0.5262,-0.5255,-0.5253,-0.5245,-0.5236,-0.5231,-0.5228,-0.5224,-0.5225,-0.5225,-0.5226,-0.5227,-0.5212,-0.5227,-0.5227,-0.5227,-0.5227,-0.5227,0,-0.5317,-0.5312,-0.5309,-0.5303,-0.53,-0.5292,-0.5286,-0.5285,-0.5282,-0.5276,-0.5273,-0.5268,-0.5264,-0.5255,-0.5249,-0.5249,-0.5245,-0.5248,-0.5248,-0.5247,-0.5232,-0.5231,-0.5251,-0.5251,-0.5251,-0.5251,-0.5251,-0.5251,-0.5327,-0.5327,-0.5322,-0.5319,-0.5314,-0.5311,-0.5309,-0.5304,-0.5299,-0.5295,-0.5292,-0.5286,-0.5278,-0.5272,-0.5268,-0.5265,-0.5264,-0.5268,-0.5264,-0.525,-0.5248,-0.5246,-0.5245,-0.5268,-0.5268,-0.5279,-0.5279,-0.5279]},{"header":{"parameterUnit":"m.s-1","parameterCategory":1,"la1":30.2991,"la2":30.254,"lo1":-89.0895,"lo2":-89.0444,"dy":0.0017,"dx":0.0017,"nx":28,"ny":28,"refTime":"2025-12-25T09:00:00:Z","depth":0,"parameterNumber":3,"parameterNumberName":"V-component_of_WINDS"},"data":[0,0,0,0,0,0,0,0,0,0,0,0,0,0,0,0,0,0,0,0,0,0,0,0,0,0,0,0,0,0,0,0,0,0,0,0,0,0,0,0,0,0,0,0,0,0,0,0,0,0,0,0,0,0,0,0,0,0,-1.0366,-1.0367,0,-1.0456,-1.0457,-1.0458,-1.0468,-1.0467,-1.0466,-1.0466,-1.0559,-1.0562,-1.0565,0,0,0,0,0,0,0,0,0,0,0,0,0,-1.0204,-1.0207,-1.0366,-1.0367,-1.0368,-1.0456,-1.0457,-1.0458,-1.0468,-1.0467,-1.0466,-1.0465,-1.0558,-1.0562,-1.0566,0,0,0,0,0,0,0,0,0,0,0,0,0,-1.0282,-1.0208,-1.0366,-1.0384,-1.0386,-1.0456,-1.0457,-1.0459,-1.0469,-1.0467,-1.0466,-1.0465,-1.0556,-1.0561,-1.0566,-1.0624,0,0,-1.0581,-1.0583,0,0,0,0,0,0,0,0,-1.0278,-1.0288,-1.038,-1.0383,-1.0386,-1.045,-1.0434,-1.0514,-1.0469,-1.0437,-1.0466,-1.0464,-1.0524,-1.0531,-1.0551,-1.0629,-1.0633,-1.0582,-1.0585,-1.0587,-1.0588,0,0,0,0,0,0,0,-1.0272,-1.0284,-1.0402,-1.0381,-1.0385,-1.0388,-1.0397,-1.0449,-1.0487,-1.044,-1.0441,-1.0451,-1.0525,-1.0546,-1.0553,-1.0634,-1.0582,-1.0586,-1.0589,-1.0591,-1.0765,-1.0766,0,0,0,0,0,0,-1.0263,-1.028,-1.0399,-1.0404,-1.0327,-1.0392,-1.0403,-1.043,-1.0486,-1.0494,-1.0453,-1.0452,-1.0538,-1.0547,-1.0557,-1.0629,-1.0587,-1.0592,-1.0594,-1.0763,-1.0765,-1.0767,0,0,0,0,0,0,-1.026,-1.0274,-1.0395,-1.0342,-1.0358,-1.0396,-1.0427,-1.0433,-1.0454,-1.0496,-1.0503,-1.0467,-1.0538,-1.055,-1.0607,-1.0632,-1.0594,-1.0598,-1.0761,-1.0764,-1.0766,-1.0774,0,0,0,0,0,0,-1.0255,-1.0272,-1.0295,-1.0343,-1.0361,-1.0444,-1.0429,-1.0436,-1.0463,-1.0462,-1.0512,-1.0519,-1.0538,-1.06,-1.0612,-1.0638,-1.0602,-1.0759,-1.0762,-1.0765,-1.0771,-1.0776,-1.078,0,0,0,0,0,-1.0249,-1.0293,-1.0296,-1.031,-1.0389,-1.0445,-1.0456,-1.0476,-1.0465,-1.0488,-1.0514,-1.0517,-1.0628,-1.0606,-1.062,-1.0648,-1.0758,-1.0761,-1.0765,-1.0769,-1.0775,-1.078,0,0,0,0,0,0,-1.0247,-1.03,-1.0303,-1.0364,-1.04,-1.0447,-1.0476,-1.0482,-1.0522,-1.052,-1.0544,-1.0556,-1.0613,-1.0636,-1.0611,-1.0707,-1.0691,-1.0698,-1.069,-1.0696,-1.07,-1.0693,-1.0606,0,0,0,0,0,-1.0253,-1.0294,-1.0338,-1.0388,-1.0406,-1.0438,-1.0463,-1.0476,-1.0515,-1.053,-1.0561,-1.0599,-1.0642,-1.067,-1.0712,-1.0775,-1.0786,-1.0801,-1.0805,-1.0809,-1.0814,-1.085,-1.0857,-1.0779,-1.0779,-1.0778,0,0,-1.0267,-1.0301,-1.0326,-1.0388,-1.0418,-1.046,-1.0451,-1.0496,-1.0528,-1.0537,-1.0594,-1.0618,-1.0662,-1.0722,-1.075,-1.0743,-1.0838,-1.0813,-1.0816,-1.0819,-1.0854,-1.0861,-1.0868,-1.0781,-1.0781,-1.078,0,0,-1.0314,-1.0344,-1.0389,-1.0419,-1.0464,-1.0485,-1.0496,-1.0542,-1.0559,-1.0616,-1.0624,-1.0662,-1.0736,-1.0767,-1.0793,-1.0853,-1.0857,-1.0866,-1.0888,-1.0923,-1.0929,-1.0935,-1.0956,-1.0964,-1.0871,-1.0871,-1.0871,0,-1.0326,-1.039,-1.0411,-1.0456,-1.0484,-1.0494,-1.054,-1.0568,-1.0625,-1.0644,-1.0635,-1.0729,-1.0759,-1.0827,-1.0842,-1.0862,-1.0875,-1.086,-1.0926,-1.0932,-1.0938,-1.0959,-1.0967,-1.0872,-1.0872,-1.0872,-1.0872,0,-1.0403,-1.0447,-1.0478,-1.0532,-1.0563,-1.0608,-1.0637,-1.0666,-1.0676,-1.0698,-1.0757,-1.0793,-1.0844,-1.0861,-1.0871,-1.0931,-1.0925,-1.0921,-1.0906,-1.0946,-1.0966,-1.0974,-1.0873,-1.0873,-1.0873,-1.0872,0,0,-1.045,-1.0516,-1.0527,-1.0552,-1.0603,-1.0638,-1.0684,-1.0733,-1.0758,-1.0796,-1.0836,-1.0899,-1.0896,-1.0925,-1.0939,-1.0969,-1.1015,-1.0961,-1.0963,-1.097,-1.1084,-1.1086,-1.1095,-1.1018,-1.1019,-1.1021,-1.108,0,-1.0503,-1.0585,-1.0606,-1.0676,-1.0718,-1.0729,-1.0769,-1.0805,-1.0827,-1.0866,-1.0891,-1.0935,-1.0927,-1.0945,-1.0975,-1.1003,-1.1038,-1.0999,-1.1055,-1.1057,-1.1044,-1.1106,-1.1109,-1.1163,-1.1088,-1.1089,-1.109,0,-1.0576,-1.0617,-1.0691,-1.0737,-1.0755,-1.0791,-1.0838,-1.0875,-1.0916,-1.093,-1.0963,-1.0975,-1.1024,-1.1005,-1.1074,-1.1047,-1.1071,-1.1088,-1.1091,-1.1097,-1.1076,-1.1114,-1.1181,-1.1189,-1.1103,-1.1102,-1.1101,0,-1.0604,-1.0677,-1.0731,-1.0753,-1.0808,-1.0833,-1.0857,-1.0897,-1.0925,-1.0966,-1.0985,-1.1031,-1.1057,-1.1093,-1.1117,-1.1101,-1.1183,-1.1167,-1.1197,-1.1196,-1.1214,-1.1213,-1.1286,-1.1229,-1.1229,-1.1229,-1.1229,0,-1.0662,-1.0707,-1.0745,-1.0778,-1.0829,-1.0853,-1.0903,-1.0928,-1.0963,-1.1002,-1.1014,-1.105,-1.108,-1.112,-1.1139,-1.1193,-1.1205,-1.1218,-1.1223,-1.1217,-1.1216,-1.1234,-1.1231,-1.1231,-1.1231,-1.123,-1.123,0,-1.0701,-1.0728,-1.0788,-1.0836,-1.0849,-1.0884,-1.0925,-1.0958,-1.0981,-1.103,-1.1043,-1.1079,-1.1127,-1.1155,-1.1216,-1.1228,-1.1289,-1.1291,-1.1275,-1.1277,-1.1306,-1.1303,-1.1394,-1.1407,-1.1341,-1.1341,-1.1342,0,-1.0736,-1.0771,-1.0822,-1.0849,-1.0874,-1.0917,-1.0946,-1.0971,-1.1001,-1.1051,-1.1078,-1.1127,-1.1168,-1.1244,-1.1276,-1.1323,-1.1327,-1.1356,-1.1334,-1.1328,-1.1328,-1.1326,-1.133,-1.1359,-1.136,-1.136,-1.1361,0,-1.0795,-1.0807,-1.0848,-1.0895,-1.0929,-1.0967,-1.1005,-1.1026,-1.1057,-1.109,-1.114,-1.1171,-1.1234,-1.1282,-1.1332,-1.1357,-1.1365,-1.1367,-1.1377,-1.1372,-1.1361,-1.1368,-1.1285,-1.1365,-1.1365,-1.1364,-1.1364,-1.1364,-1.0834,-1.0866,-1.0907,-1.0953,-1.0984,-1.1019,-1.1053,-1.108,-1.1122,-1.1174,-1.1187,-1.1239,-1.128,-1.1347,-1.1374,-1.1416,-1.1411,-1.1424,-1.1428,-1.1431,-1.1432,-1.1354,-1.1425,-1.1425,-1.1425,-1.1425,-1.1425,0,-1.0894,-1.0922,-1.0964,-1.1016,-1.1052,-1.1056,-1.1098,-1.1128,-1.1174,-1.1212,-1.1251,-1.1309,-1.1356,-1.1392,-1.1441,-1.1467,-1.1472,-1.148,-1.1478,-1.1484,-1.1434,-1.1421,-1.1475,-1.1475,-1.1475,-1.1475,-1.1475,-1.1475,-1.093,-1.0984,-1.1001,-1.1072,-1.1099,-1.115,-1.1174,-1.1207,-1.1237,-1.13,-1.134,-1.1363,-1.14,-1.1452,-1.1496,-1.1506,-1.1523,-1.153,-1.154,-1.1493,-1.1487,-1.1482,-1.147,-1.1534,-1.1534,-1.1587,-1.1588,-1.1588]}]]